,,,PA_Meas_PMT16A,,PR_Meas_QMR101_102,,RH_Meas_QMH101,,SR_Meas_QMS101,,TA_Meas_QMH101,,GenWind,,GenWind,
date,time,status,PA,status,PR,status,RH,status,SR,status,TA,status,DirAvg,status,SpdAvg,
2009-09-13, 00:00:04,VALID,1010.51,VALID,0,VALID,98.174,VALID,0,VALID,25.6802,VALID,4,VALID,0.248828,
2009-09-13, 00:01:04,VALID,1010.52,VALID,0,VALID,98.1816,VALID,0,VALID,25.6997,VALID,4,VALID,0.239844,
2009-09-13, 00:02:04,VALID,1010.52,VALID,0,VALID,98.174,VALID,0.105969,VALID,25.6821,VALID,4,VALID,0.233984,
2009-09-13, 00:03:04,VALID,1010.51,VALID,0,VALID,98.1816,VALID,0,VALID,25.6607,VALID,4,VALID,0.135156,
2009-09-13, 00:04:04,VALID,1010.54,VALID,0,VALID,98.2045,VALID,0,VALID,25.6626,VALID,4,VALID,0,
2009-09-13, 00:05:04,VALID,1010.52,VALID,0,VALID,98.1968,VALID,0,VALID,25.6431,VALID,6,VALID,0.453906,
2009-09-13, 00:06:04,VALID,1010.49,VALID,0,VALID,98.2273,VALID,0,VALID,25.6431,VALID,6,VALID,0.250391,
2009-09-13, 00:07:04,VALID,1010.52,VALID,0,VALID,98.1816,VALID,0.105969,VALID,25.6236,VALID,6,VALID,0.0769531,
2009-09-13, 00:08:04,VALID,1010.52,VALID,0,VALID,98.2121,VALID,0,VALID,25.5827,VALID,6,VALID,0.139062,
2009-09-13, 00:09:04,VALID,1010.5,VALID,0,VALID,98.2197,VALID,0,VALID,25.5846,VALID,6,VALID,0,
2009-09-13, 00:10:04,VALID,1010.48,VALID,0,VALID,98.2197,VALID,0,VALID,25.5651,VALID,6,VALID,0,
2009-09-13, 00:11:04,VALID,1010.47,VALID,0,VALID,98.1968,VALID,0,VALID,25.5437,VALID,6,VALID,0.207813,
2009-09-13, 00:12:04,VALID,1010.47,VALID,0,VALID,98.1892,VALID,0.105969,VALID,25.5632,VALID,6,VALID,0.190234,
2009-09-13, 00:13:04,VALID,1010.44,VALID,0,VALID,98.2121,VALID,0.105969,VALID,25.5846,VALID,6,VALID,0.372266,
2009-09-13, 00:14:04,VALID,1010.44,VALID,0,VALID,98.2121,VALID,0.105969,VALID,25.5846,VALID,6,VALID,0.380859,
2009-09-13, 00:15:04,VALID,1010.42,VALID,0,VALID,98.2273,VALID,0,VALID,25.5846,VALID,6,VALID,0.144141,
2009-09-13, 00:16:04,VALID,1010.42,VALID,0,VALID,98.2197,VALID,0,VALID,25.5632,VALID,6,VALID,0,
2009-09-13, 00:17:04,VALID,1010.42,VALID,0,VALID,98.2121,VALID,0.105969,VALID,25.5437,VALID,6,VALID,0,
2009-09-13, 00:18:04,VALID,1010.4,VALID,0,VALID,98.2273,VALID,0,VALID,25.5456,VALID,6,VALID,0,
2009-09-13, 00:19:04,VALID,1010.4,VALID,0,VALID,98.235,VALID,0.105969,VALID,25.5456,VALID,6,VALID,0.0410156,
2009-09-13, 00:20:04,VALID,1010.37,VALID,0,VALID,98.2273,VALID,0,VALID,25.5242,VALID,6,VALID,0,
2009-09-13, 00:21:04,VALID,1010.37,VALID,0,VALID,98.2273,VALID,0,VALID,25.5456,VALID,6,VALID,0,
2009-09-13, 00:22:04,VALID,1010.34,VALID,0,VALID,98.235,VALID,0,VALID,25.5047,VALID,6,VALID,0,
2009-09-13, 00:23:04,VALID,1010.31,VALID,0,VALID,98.2502,VALID,0,VALID,25.5242,VALID,6,VALID,0,
2009-09-13, 00:24:04,VALID,1010.28,VALID,0,VALID,98.235,VALID,0,VALID,25.5242,VALID,6,VALID,0,
2009-09-13, 00:25:04,VALID,1010.25,VALID,0,VALID,98.2121,VALID,0,VALID,25.5456,VALID,6,VALID,0,
2009-09-13, 00:26:04,VALID,1010.23,VALID,0,VALID,98.2426,VALID,0,VALID,25.5242,VALID,6,VALID,0,
2009-09-13, 00:27:04,VALID,1010.23,VALID,0,VALID,98.2578,VALID,0,VALID,25.5456,VALID,6,VALID,0,
2009-09-13, 00:28:04,VALID,1010.18,VALID,0,VALID,98.235,VALID,0.105969,VALID,25.5456,VALID,6,VALID,0,
2009-09-13, 00:29:04,VALID,1010.16,VALID,0,VALID,98.2578,VALID,0,VALID,25.5242,VALID,6,VALID,0,
2009-09-13, 00:30:04,VALID,1010.15,VALID,0,VALID,98.2883,VALID,0.105969,VALID,25.5242,VALID,6,VALID,0,
2009-09-13, 00:31:04,VALID,1010.12,VALID,0,VALID,98.2502,VALID,0.105969,VALID,25.5261,VALID,6,VALID,0,
2009-09-13, 00:32:04,VALID,1010.14,VALID,0,VALID,98.2578,VALID,0,VALID,25.5261,VALID,6,VALID,0,
2009-09-13, 00:33:04,VALID,1010.11,VALID,0,VALID,98.2578,VALID,0,VALID,25.5047,VALID,6,VALID,0,
2009-09-13, 00:34:04,VALID,1010.12,VALID,0,VALID,98.2655,VALID,0,VALID,25.5261,VALID,6,VALID,0,
2009-09-13, 00:35:04,VALID,1010.11,VALID,0,VALID,98.2731,VALID,0.105969,VALID,25.4852,VALID,6,VALID,0,
2009-09-13, 00:36:04,VALID,1010.14,VALID,0,VALID,98.2731,VALID,0.105969,VALID,25.5047,VALID,6,VALID,0,
2009-09-13, 00:37:04,VALID,1010.09,VALID,0,VALID,98.2807,VALID,0,VALID,25.5261,VALID,6,VALID,0.308203,
2009-09-13, 00:38:04,VALID,1010.08,VALID,0,VALID,98.2883,VALID,0,VALID,25.4871,VALID,6,VALID,0.270312,
2009-09-13, 00:39:04,VALID,1010.06,VALID,0,VALID,98.3036,VALID,0,VALID,25.4657,VALID,6,VALID,0.296484,
2009-09-13, 00:40:04,VALID,1010.03,VALID,0,VALID,98.2807,VALID,0.105969,VALID,25.4871,VALID,6,VALID,0.16875,
2009-09-13, 00:41:04,VALID,1010,VALID,0,VALID,98.2883,VALID,0.105969,VALID,25.4657,VALID,6,VALID,0,
2009-09-13, 00:42:04,VALID,1009.98,VALID,0,VALID,98.296,VALID,0,VALID,25.4677,VALID,6,VALID,0,
2009-09-13, 00:43:04,VALID,1009.94,VALID,0,VALID,98.3112,VALID,0.105969,VALID,25.4267,VALID,6,VALID,0,
2009-09-13, 00:44:04,VALID,1009.96,VALID,0,VALID,98.296,VALID,0,VALID,25.4482,VALID,6,VALID,0,
2009-09-13, 00:45:04,VALID,1009.95,VALID,0,VALID,98.3036,VALID,0.105969,VALID,25.4287,VALID,6,VALID,0,
2009-09-13, 00:46:04,VALID,1009.93,VALID,0,VALID,98.296,VALID,0,VALID,25.4267,VALID,6,VALID,0,
2009-09-13, 00:47:04,VALID,1009.9,VALID,0,VALID,98.296,VALID,0.105969,VALID,25.4267,VALID,6,VALID,0,
2009-09-13, 00:48:04,VALID,1009.87,VALID,0,VALID,98.296,VALID,0.105969,VALID,25.4267,VALID,6,VALID,0,
2009-09-13, 00:49:04,VALID,1009.9,VALID,0,VALID,98.3036,VALID,0.105969,VALID,25.4267,VALID,6,VALID,0,
2009-09-13, 00:50:04,VALID,1009.88,VALID,0,VALID,98.296,VALID,0.105969,VALID,25.4267,VALID,6,VALID,0,
2009-09-13, 00:51:04,VALID,1009.87,VALID,0,VALID,98.3265,VALID,0.105969,VALID,25.4482,VALID,6,VALID,0,
2009-09-13, 00:52:04,VALID,1009.92,VALID,0,VALID,98.296,VALID,0.105969,VALID,25.4267,VALID,6,VALID,0,
2009-09-13, 00:53:04,VALID,1009.9,VALID,0,VALID,98.296,VALID,0,VALID,25.3877,VALID,6,VALID,0,
2009-09-13, 00:54:04,VALID,1009.9,VALID,0,VALID,98.3341,VALID,0.105969,VALID,25.4072,VALID,6,VALID,0.003125,
2009-09-13, 00:55:04,VALID,1009.9,VALID,0,VALID,98.3112,VALID,0.105969,VALID,25.3683,VALID,6,VALID,0.2875,
2009-09-13, 00:56:04,VALID,1009.9,VALID,0,VALID,98.3036,VALID,0,VALID,25.4092,VALID,6,VALID,0.232812,
2009-09-13, 00:57:04,VALID,1009.86,VALID,0,VALID,98.3112,VALID,0,VALID,25.4092,VALID,6,VALID,0.009375,
2009-09-13, 00:58:04,VALID,1009.86,VALID,0,VALID,98.3036,VALID,0,VALID,25.3897,VALID,6,VALID,0,
2009-09-13, 00:59:04,VALID,1009.85,VALID,0,VALID,98.3417,VALID,0,VALID,25.3702,VALID,6,VALID,0,
2009-09-13, 01:00:04,VALID,1009.83,VALID,0,VALID,98.3417,VALID,0,VALID,25.3117,VALID,6,VALID,0,
2009-09-13, 01:01:04,VALID,1009.83,VALID,0,VALID,98.357,VALID,0,VALID,25.2727,VALID,6,VALID,0,
2009-09-13, 01:02:04,VALID,1009.81,VALID,0,VALID,98.3417,VALID,0,VALID,25.2727,VALID,6,VALID,0,
2009-09-13, 01:03:04,VALID,1009.74,VALID,0,VALID,98.3188,VALID,0,VALID,25.2922,VALID,6,VALID,0,
2009-09-13, 01:04:04,VALID,1009.75,VALID,0,VALID,98.3188,VALID,0,VALID,25.2922,VALID,6,VALID,0,
2009-09-13, 01:05:04,VALID,1009.78,VALID,0,VALID,98.3265,VALID,0,VALID,25.2922,VALID,6,VALID,0,
2009-09-13, 01:06:04,VALID,1009.75,VALID,0,VALID,98.3265,VALID,0,VALID,25.2727,VALID,6,VALID,0,
2009-09-13, 01:07:04,VALID,1009.78,VALID,0,VALID,98.3341,VALID,0,VALID,25.2922,VALID,6,VALID,0.0753906,
2009-09-13, 01:08:04,VALID,1009.78,VALID,0,VALID,98.3265,VALID,0,VALID,25.2922,VALID,6,VALID,0,
2009-09-13, 01:09:04,VALID,1009.8,VALID,0,VALID,98.3417,VALID,0,VALID,25.2727,VALID,6,VALID,0,
2009-09-13, 01:10:04,VALID,1009.81,VALID,0,VALID,98.3417,VALID,0,VALID,25.2922,VALID,6,VALID,0.00195313,
2009-09-13, 01:11:04,VALID,1009.85,VALID,0,VALID,98.3265,VALID,0,VALID,25.2941,VALID,6,VALID,0,
2009-09-13, 01:12:04,VALID,1009.85,VALID,0,VALID,98.3417,VALID,0,VALID,25.2727,VALID,6,VALID,0.0015625,
2009-09-13, 01:13:04,VALID,1009.85,VALID,0,VALID,98.357,VALID,0.105969,VALID,25.3117,VALID,6,VALID,0.272656,
2009-09-13, 01:14:04,VALID,1009.89,VALID,0,VALID,98.3722,VALID,0.105969,VALID,25.2708,VALID,6,VALID,0.311719,
2009-09-13, 01:15:04,VALID,1009.87,VALID,0,VALID,98.357,VALID,0.105969,VALID,25.2903,VALID,6,VALID,0.432031,
2009-09-13, 01:16:04,VALID,1009.88,VALID,0,VALID,98.3722,VALID,0.105969,VALID,25.2513,VALID,6,VALID,0.472656,
2009-09-13, 01:17:04,VALID,1009.9,VALID,0,VALID,98.357,VALID,0.105969,VALID,25.2727,VALID,6,VALID,0.29375,
2009-09-13, 01:18:04,VALID,1009.91,VALID,0,VALID,98.3798,VALID,0.105969,VALID,25.2318,VALID,6,VALID,0.359375,
2009-09-13, 01:19:04,VALID,1009.88,VALID,0,VALID,98.357,VALID,0.105969,VALID,25.2123,VALID,37,VALID,0.685156,
2009-09-13, 01:20:04,VALID,1009.89,VALID,0,VALID,98.3722,VALID,0.105969,VALID,25.2123,VALID,37,VALID,0.540234,
2009-09-13, 01:21:04,VALID,1009.89,VALID,0,VALID,98.3493,VALID,0.105969,VALID,25.2123,VALID,22,VALID,0.609766,
2009-09-13, 01:22:04,VALID,1009.89,VALID,0,VALID,98.357,VALID,0.105969,VALID,25.2123,VALID,37,VALID,0.398828,
2009-09-13, 01:23:04,VALID,1009.85,VALID,0,VALID,98.3493,VALID,0.105969,VALID,25.2123,VALID,23,VALID,0.733203,
2009-09-13, 01:24:04,VALID,1009.85,VALID,0,VALID,98.3646,VALID,0.105969,VALID,25.2123,VALID,27,VALID,0.607031,
2009-09-13, 01:25:04,VALID,1009.81,VALID,0,VALID,98.3722,VALID,0.105969,VALID,25.1928,VALID,27,VALID,0.276172,
2009-09-13, 01:26:04,VALID,1009.81,VALID,0,VALID,98.357,VALID,0.105969,VALID,25.1928,VALID,27,VALID,0,
2009-09-13, 01:27:04,VALID,1009.77,VALID,0,VALID,98.3798,VALID,0,VALID,25.1752,VALID,27,VALID,0.396094,
2009-09-13, 01:28:04,VALID,1009.76,VALID,0,VALID,98.3951,VALID,0,VALID,25.1966,VALID,5,VALID,0.300391,
2009-09-13, 01:29:04,VALID,1009.73,VALID,0,VALID,98.3798,VALID,0,VALID,25.1752,VALID,5,VALID,0,
2009-09-13, 01:30:04,VALID,1009.72,VALID,0,VALID,98.3951,VALID,0,VALID,25.1557,VALID,5,VALID,0.190625,
2009-09-13, 01:31:04,VALID,1009.72,VALID,0,VALID,98.4027,VALID,0,VALID,25.1557,VALID,5,VALID,0.00429688,
2009-09-13, 01:32:04,VALID,1009.72,VALID,0,VALID,98.3875,VALID,0,VALID,25.1167,VALID,5,VALID,0.0621094,
2009-09-13, 01:33:04,VALID,1009.69,VALID,0,VALID,98.3875,VALID,0,VALID,25.1576,VALID,5,VALID,0,
2009-09-13, 01:34:04,VALID,1009.7,VALID,0,VALID,98.3951,VALID,0,VALID,25.1167,VALID,5,VALID,0,
2009-09-13, 01:35:04,VALID,1009.66,VALID,0,VALID,98.3646,VALID,0,VALID,25.1381,VALID,5,VALID,0,
2009-09-13, 01:36:04,VALID,1009.68,VALID,0,VALID,98.3798,VALID,0,VALID,25.1167,VALID,5,VALID,0,
2009-09-13, 01:37:04,VALID,1009.69,VALID,0,VALID,98.3875,VALID,0,VALID,25.1167,VALID,5,VALID,0,
2009-09-13, 01:38:04,VALID,1009.69,VALID,0,VALID,98.3951,VALID,0,VALID,25.0992,VALID,5,VALID,0,
2009-09-13, 01:39:04,VALID,1009.71,VALID,0,VALID,98.3875,VALID,0,VALID,25.0973,VALID,5,VALID,0,
2009-09-13, 01:40:04,VALID,1009.69,VALID,0,VALID,98.3722,VALID,0,VALID,25.0973,VALID,5,VALID,0,
2009-09-13, 01:41:04,VALID,1009.69,VALID,0,VALID,98.3798,VALID,0,VALID,25.1381,VALID,5,VALID,0.320703,
2009-09-13, 01:42:04,VALID,1009.68,VALID,0,VALID,98.3875,VALID,0,VALID,25.1167,VALID,5,VALID,0.345703,
2009-09-13, 01:43:04,VALID,1009.65,VALID,0,VALID,98.3798,VALID,0.105969,VALID,25.1148,VALID,5,VALID,0.277344,
2009-09-13, 01:44:04,VALID,1009.61,VALID,0,VALID,98.3951,VALID,0.105969,VALID,25.1167,VALID,5,VALID,0.250391,
2009-09-13, 01:45:04,VALID,1009.57,VALID,0,VALID,98.3951,VALID,0.105969,VALID,25.0954,VALID,5,VALID,0.433984,
2009-09-13, 01:46:04,VALID,1009.58,VALID,0,VALID,98.3951,VALID,0.105969,VALID,25.1362,VALID,5,VALID,0.232812,
2009-09-13, 01:47:04,VALID,1009.57,VALID,0,VALID,98.418,VALID,0.105969,VALID,25.1148,VALID,5,VALID,0.275391,
2009-09-13, 01:48:04,VALID,1009.6,VALID,0,VALID,98.3951,VALID,0.105969,VALID,25.1362,VALID,5,VALID,0.353906,
2009-09-13, 01:49:04,VALID,1009.6,VALID,0,VALID,98.3798,VALID,0.105969,VALID,25.1362,VALID,5,VALID,0.334375,
2009-09-13, 01:50:04,VALID,1009.6,VALID,0,VALID,98.3951,VALID,0.105969,VALID,25.1362,VALID,5,VALID,0,
2009-09-13, 01:51:04,VALID,1009.6,VALID,0,VALID,98.4103,VALID,0.105969,VALID,25.1362,VALID,5,VALID,0,
2009-09-13, 01:52:04,VALID,1009.59,VALID,0,VALID,98.3951,VALID,0.105969,VALID,25.1148,VALID,5,VALID,0,
2009-09-13, 01:53:04,VALID,1009.58,VALID,0,VALID,98.3875,VALID,0.105969,VALID,25.1148,VALID,5,VALID,0,
2009-09-13, 01:54:04,VALID,1009.55,VALID,0,VALID,98.4027,VALID,0.105969,VALID,25.1362,VALID,5,VALID,0,
2009-09-13, 01:55:04,VALID,1009.56,VALID,0,VALID,98.4103,VALID,0.105969,VALID,25.1148,VALID,5,VALID,0,
2009-09-13, 01:56:04,VALID,1009.54,VALID,0,VALID,98.3951,VALID,0.211938,VALID,25.1343,VALID,357,VALID,0,
2009-09-13, 01:57:04,VALID,1009.53,VALID,0,VALID,98.4027,VALID,0.105969,VALID,25.1343,VALID,357,VALID,0,
2009-09-13, 01:58:04,VALID,1009.54,VALID,0,VALID,98.3951,VALID,0,VALID,25.1362,VALID,357,VALID,0,
2009-09-13, 01:59:04,VALID,1009.5,VALID,0,VALID,98.4027,VALID,0,VALID,25.1362,VALID,357,VALID,0,
2009-09-13, 02:00:04,VALID,1009.54,VALID,0,VALID,98.4256,VALID,0,VALID,25.1576,VALID,357,VALID,0,
2009-09-13, 02:01:04,VALID,1009.56,VALID,0,VALID,98.4332,VALID,0,VALID,25.1576,VALID,357,VALID,0,
2009-09-13, 02:02:04,VALID,1009.6,VALID,0,VALID,98.4103,VALID,0,VALID,25.1362,VALID,357,VALID,0,
2009-09-13, 02:03:04,VALID,1009.62,VALID,0,VALID,98.4256,VALID,0,VALID,25.1576,VALID,357,VALID,0,
2009-09-13, 02:04:04,VALID,1009.66,VALID,0,VALID,98.4332,VALID,0,VALID,25.0973,VALID,357,VALID,0,
2009-09-13, 02:05:04,VALID,1009.7,VALID,0,VALID,98.4332,VALID,0,VALID,25.1187,VALID,102,VALID,0,
2009-09-13, 02:06:04,VALID,1009.68,VALID,0,VALID,98.4637,VALID,0.105969,VALID,25.0583,VALID,102,VALID,0,
2009-09-13, 02:07:04,VALID,1009.72,VALID,0,VALID,98.4485,VALID,0,VALID,25.0602,VALID,102,VALID,0,
2009-09-13, 02:08:04,VALID,1009.7,VALID,0,VALID,98.4637,VALID,0,VALID,25.0388,VALID,102,VALID,0,
2009-09-13, 02:09:04,VALID,1009.65,VALID,0,VALID,98.4332,VALID,0,VALID,25.0602,VALID,102,VALID,0,
2009-09-13, 02:10:04,VALID,1009.64,VALID,0,VALID,98.4485,VALID,0,VALID,25.0212,VALID,102,VALID,0,
2009-09-13, 02:11:04,VALID,1009.62,VALID,0,VALID,98.4561,VALID,0,VALID,25.0212,VALID,102,VALID,0,
2009-09-13, 02:12:04,VALID,1009.6,VALID,0,VALID,98.4332,VALID,0,VALID,25.0602,VALID,102,VALID,0,
2009-09-13, 02:13:04,VALID,1009.61,VALID,0,VALID,98.4256,VALID,0.105969,VALID,25.0174,VALID,102,VALID,0,
2009-09-13, 02:14:04,VALID,1009.59,VALID,0,VALID,98.4027,VALID,0.105969,VALID,25.0174,VALID,102,VALID,0,
2009-09-13, 02:15:04,VALID,1009.6,VALID,0,VALID,98.3875,VALID,0.105969,VALID,25.0369,VALID,102,VALID,0,
2009-09-13, 02:16:04,VALID,1009.63,VALID,0,VALID,98.4256,VALID,0.105969,VALID,25.0369,VALID,102,VALID,0,
2009-09-13, 02:17:04,VALID,1009.64,VALID,0,VALID,98.4027,VALID,0.105969,VALID,25.0583,VALID,102,VALID,0,
2009-09-13, 02:18:04,VALID,1009.68,VALID,0,VALID,98.4103,VALID,0.105969,VALID,25.0564,VALID,102,VALID,0,
2009-09-13, 02:19:04,VALID,1009.69,VALID,0,VALID,98.418,VALID,0.105969,VALID,25.0369,VALID,102,VALID,0,
2009-09-13, 02:20:04,VALID,1009.67,VALID,0,VALID,98.4256,VALID,0.105969,VALID,25.0369,VALID,100,VALID,0,
2009-09-13, 02:21:04,VALID,1009.69,VALID,0,VALID,98.418,VALID,0.105969,VALID,25.0564,VALID,97,VALID,0,
2009-09-13, 02:22:04,VALID,1009.71,VALID,0,VALID,98.4256,VALID,0.105969,VALID,25.0369,VALID,97,VALID,0,
2009-09-13, 02:23:04,VALID,1009.69,VALID,0,VALID,98.4485,VALID,0.105969,VALID,25.0174,VALID,97,VALID,0,
2009-09-13, 02:24:04,VALID,1009.7,VALID,0,VALID,98.418,VALID,0.211938,VALID,25.0174,VALID,97,VALID,0,
2009-09-13, 02:25:04,VALID,1009.64,VALID,0,VALID,98.4485,VALID,0.105969,VALID,25.0174,VALID,97,VALID,0,
2009-09-13, 02:26:04,VALID,1009.69,VALID,0,VALID,98.4485,VALID,0.105969,VALID,25.0388,VALID,97,VALID,0,
2009-09-13, 02:27:04,VALID,1009.67,VALID,0,VALID,98.4408,VALID,0.105969,VALID,24.9979,VALID,97,VALID,0,
2009-09-13, 02:28:04,VALID,1009.66,VALID,0,VALID,98.4332,VALID,0,VALID,25.0193,VALID,97,VALID,0,
2009-09-13, 02:29:04,VALID,1009.63,VALID,0,VALID,98.4561,VALID,0.105969,VALID,24.9998,VALID,97,VALID,0,
2009-09-13, 02:30:04,VALID,1009.63,VALID,0,VALID,98.4637,VALID,0,VALID,24.9589,VALID,97,VALID,0,
2009-09-13, 02:31:04,VALID,1009.63,VALID,0,VALID,98.4485,VALID,0,VALID,24.9803,VALID,97,VALID,0,
2009-09-13, 02:32:04,VALID,1009.61,VALID,0,VALID,98.418,VALID,0,VALID,24.9589,VALID,97,VALID,0,
2009-09-13, 02:33:04,VALID,1009.62,VALID,0,VALID,98.4332,VALID,0,VALID,24.9803,VALID,97,VALID,0,
2009-09-13, 02:34:04,VALID,1009.6,VALID,0,VALID,98.4408,VALID,0,VALID,24.9803,VALID,97,VALID,0,
2009-09-13, 02:35:04,VALID,1009.58,VALID,0,VALID,98.4485,VALID,0,VALID,24.9394,VALID,97,VALID,0,
2009-09-13, 02:36:04,VALID,1009.59,VALID,0,VALID,98.4332,VALID,0,VALID,24.9803,VALID,97,VALID,0,
2009-09-13, 02:37:04,VALID,1009.59,VALID,0,VALID,98.4408,VALID,0,VALID,24.9608,VALID,97,VALID,0,
2009-09-13, 02:38:04,VALID,1009.59,VALID,0,VALID,98.4408,VALID,0.105969,VALID,24.9608,VALID,97,VALID,0,
2009-09-13, 02:39:04,VALID,1009.59,VALID,0,VALID,98.418,VALID,0.105969,VALID,24.9803,VALID,97,VALID,0,
2009-09-13, 02:40:04,VALID,1009.6,VALID,0,VALID,98.4332,VALID,0.105969,VALID,24.9998,VALID,97,VALID,0,
2009-09-13, 02:41:04,VALID,1009.61,VALID,0,VALID,98.4485,VALID,0,VALID,24.9589,VALID,97,VALID,0,
2009-09-13, 02:42:04,VALID,1009.63,VALID,0,VALID,98.4408,VALID,0,VALID,24.9608,VALID,97,VALID,0,
2009-09-13, 02:43:04,VALID,1009.67,VALID,0,VALID,98.4332,VALID,0,VALID,24.9608,VALID,97,VALID,0,
2009-09-13, 02:44:04,VALID,1009.67,VALID,0,VALID,98.4408,VALID,0,VALID,24.9608,VALID,97,VALID,0,
2009-09-13, 02:45:04,VALID,1009.67,VALID,0,VALID,98.4408,VALID,0.105969,VALID,24.9608,VALID,97,VALID,0,
2009-09-13, 02:46:04,VALID,1009.68,VALID,0,VALID,98.4485,VALID,0,VALID,24.9608,VALID,97,VALID,0,
2009-09-13, 02:47:04,VALID,1009.73,VALID,0,VALID,98.4637,VALID,0,VALID,24.9199,VALID,97,VALID,0,
2009-09-13, 02:48:04,VALID,1009.72,VALID,0,VALID,98.4561,VALID,0,VALID,24.9413,VALID,63,VALID,0,
2009-09-13, 02:49:04,VALID,1009.72,VALID,0,VALID,98.4637,VALID,0,VALID,24.9218,VALID,63,VALID,0,
2009-09-13, 02:50:04,VALID,1009.76,VALID,0,VALID,98.4408,VALID,0.105969,VALID,24.9218,VALID,63,VALID,0,
2009-09-13, 02:51:04,VALID,1009.79,VALID,0,VALID,98.4561,VALID,0.105969,VALID,24.9023,VALID,63,VALID,0,
2009-09-13, 02:52:04,VALID,1009.82,VALID,0,VALID,98.4561,VALID,0,VALID,24.8809,VALID,63,VALID,0,
2009-09-13, 02:53:04,VALID,1009.8,VALID,0,VALID,98.4637,VALID,0,VALID,24.8615,VALID,63,VALID,0,
2009-09-13, 02:54:04,VALID,1009.8,VALID,0,VALID,98.4485,VALID,0.105969,VALID,24.9218,VALID,63,VALID,0,
2009-09-13, 02:55:04,VALID,1009.81,VALID,0,VALID,98.4561,VALID,0,VALID,24.9023,VALID,63,VALID,0,
2009-09-13, 02:56:04,VALID,1009.82,VALID,0,VALID,98.4485,VALID,0.105969,VALID,24.8809,VALID,63,VALID,0,
2009-09-13, 02:57:04,VALID,1009.81,VALID,0,VALID,98.4637,VALID,0.105969,VALID,24.8828,VALID,63,VALID,0,
2009-09-13, 02:58:04,VALID,1009.78,VALID,0,VALID,98.4714,VALID,0.105969,VALID,24.8633,VALID,63,VALID,0,
2009-09-13, 02:59:04,VALID,1009.79,VALID,0,VALID,98.4866,VALID,0,VALID,24.8438,VALID,63,VALID,0,
2009-09-13, 03:00:04,VALID,1009.77,VALID,0,VALID,98.4714,VALID,0,VALID,24.8225,VALID,63,VALID,0,
2009-09-13, 03:01:04,VALID,1009.74,VALID,0,VALID,98.479,VALID,0,VALID,24.8438,VALID,63,VALID,0,
2009-09-13, 03:02:04,VALID,1009.74,VALID,0,VALID,98.4714,VALID,0,VALID,24.8438,VALID,63,VALID,0,
2009-09-13, 03:03:04,VALID,1009.73,VALID,0,VALID,98.4714,VALID,0,VALID,24.8244,VALID,63,VALID,0,
2009-09-13, 03:04:04,VALID,1009.76,VALID,0,VALID,98.479,VALID,0.105969,VALID,24.8049,VALID,63,VALID,0,
2009-09-13, 03:05:04,VALID,1009.8,VALID,0,VALID,98.479,VALID,0.105969,VALID,24.8049,VALID,63,VALID,0,
2009-09-13, 03:06:04,VALID,1009.8,VALID,0,VALID,98.4714,VALID,0.105969,VALID,24.8049,VALID,63,VALID,0,
2009-09-13, 03:07:04,VALID,1009.85,VALID,0,VALID,98.4714,VALID,0,VALID,24.7854,VALID,63,VALID,0,
2009-09-13, 03:08:04,VALID,1009.89,VALID,0,VALID,98.4714,VALID,0,VALID,24.8049,VALID,63,VALID,0,
2009-09-13, 03:09:04,VALID,1009.87,VALID,0,VALID,98.4637,VALID,0,VALID,24.8067,VALID,63,VALID,0,
2009-09-13, 03:10:04,VALID,1009.9,VALID,0,VALID,98.4866,VALID,0,VALID,24.8049,VALID,63,VALID,0,
2009-09-13, 03:11:04,VALID,1009.93,VALID,0,VALID,98.4866,VALID,0,VALID,24.7854,VALID,63,VALID,0,
2009-09-13, 03:12:04,VALID,1009.89,VALID,0,VALID,98.4866,VALID,0,VALID,24.7854,VALID,63,VALID,0,
2009-09-13, 03:13:04,VALID,1009.91,VALID,0,VALID,98.479,VALID,0,VALID,24.7854,VALID,63,VALID,0,
2009-09-13, 03:14:04,VALID,1009.91,VALID,0,VALID,98.4942,VALID,0.105969,VALID,24.7854,VALID,63,VALID,0,
2009-09-13, 03:15:04,VALID,1009.91,VALID,0,VALID,98.4866,VALID,0,VALID,24.764,VALID,63,VALID,0,
2009-09-13, 03:16:04,VALID,1009.93,VALID,0,VALID,98.479,VALID,0,VALID,24.7872,VALID,63,VALID,0,
2009-09-13, 03:17:04,VALID,1009.93,VALID,0,VALID,98.479,VALID,0,VALID,24.7854,VALID,63,VALID,0,
2009-09-13, 03:18:04,VALID,1009.95,VALID,0,VALID,98.4714,VALID,0,VALID,24.764,VALID,63,VALID,0,
2009-09-13, 03:19:04,VALID,1009.96,VALID,0,VALID,98.4714,VALID,0,VALID,24.764,VALID,63,VALID,0,
2009-09-13, 03:20:04,VALID,1009.95,VALID,0,VALID,98.4637,VALID,0,VALID,24.7854,VALID,63,VALID,0,
2009-09-13, 03:21:04,VALID,1009.96,VALID,0,VALID,98.4714,VALID,0,VALID,24.7854,VALID,63,VALID,0,
2009-09-13, 03:22:04,VALID,1010,VALID,0,VALID,98.4485,VALID,0,VALID,24.8049,VALID,63,VALID,0,
2009-09-13, 03:23:04,VALID,1009.97,VALID,0,VALID,98.4561,VALID,0,VALID,24.8049,VALID,63,VALID,0,
2009-09-13, 03:24:04,VALID,1010.02,VALID,0,VALID,98.4637,VALID,0,VALID,24.7854,VALID,63,VALID,0,
2009-09-13, 03:25:04,VALID,1009.97,VALID,0,VALID,98.4866,VALID,0.105969,VALID,24.8049,VALID,63,VALID,0,
2009-09-13, 03:26:04,VALID,1009.98,VALID,0,VALID,98.4637,VALID,0,VALID,24.7835,VALID,63,VALID,0,
2009-09-13, 03:27:04,VALID,1009.97,VALID,0,VALID,98.4637,VALID,0,VALID,24.8244,VALID,63,VALID,0,
2009-09-13, 03:28:04,VALID,1009.98,VALID,0,VALID,98.4866,VALID,0,VALID,24.7835,VALID,63,VALID,0,
2009-09-13, 03:29:04,VALID,1009.98,VALID,0,VALID,98.4714,VALID,0.105969,VALID,24.8049,VALID,63,VALID,0,
2009-09-13, 03:30:04,VALID,1009.93,VALID,0,VALID,98.4408,VALID,0.105969,VALID,24.8049,VALID,63,VALID,0,
2009-09-13, 03:31:04,VALID,1009.97,VALID,0,VALID,98.479,VALID,0.105969,VALID,24.7854,VALID,63,VALID,0,
2009-09-13, 03:32:04,VALID,1009.95,VALID,0,VALID,98.4714,VALID,0.105969,VALID,24.7835,VALID,63,VALID,0,
2009-09-13, 03:33:04,VALID,1009.98,VALID,0,VALID,98.4637,VALID,0,VALID,24.8049,VALID,63,VALID,0,
2009-09-13, 03:34:04,VALID,1009.99,VALID,0,VALID,98.4485,VALID,0.105969,VALID,24.8049,VALID,63,VALID,0,
2009-09-13, 03:35:04,VALID,1010,VALID,0,VALID,98.479,VALID,0.105969,VALID,24.7854,VALID,63,VALID,0,
2009-09-13, 03:36:04,VALID,1010,VALID,0,VALID,98.4866,VALID,0.105969,VALID,24.7854,VALID,63,VALID,0,
2009-09-13, 03:37:04,VALID,1009.98,VALID,0,VALID,98.4942,VALID,0.105969,VALID,24.7659,VALID,63,VALID,0,
2009-09-13, 03:38:04,VALID,1010.03,VALID,0,VALID,98.5019,VALID,0.105969,VALID,24.7659,VALID,63,VALID,0,
2009-09-13, 03:39:04,VALID,1010.05,VALID,0,VALID,98.5095,VALID,0.105969,VALID,24.7464,VALID,63,VALID,0,
2009-09-13, 03:40:04,VALID,1010.05,VALID,0,VALID,98.5019,VALID,0,VALID,24.7055,VALID,63,VALID,0,
2009-09-13, 03:41:04,VALID,1010.07,VALID,0,VALID,98.4866,VALID,0,VALID,24.7269,VALID,63,VALID,0,
2009-09-13, 03:42:04,VALID,1010.09,VALID,0,VALID,98.479,VALID,0.105969,VALID,24.7269,VALID,63,VALID,0,
2009-09-13, 03:43:04,VALID,1010.11,VALID,0,VALID,98.4866,VALID,0.105969,VALID,24.7269,VALID,63,VALID,0,
2009-09-13, 03:44:04,VALID,1010.14,VALID,0,VALID,98.5095,VALID,0,VALID,24.7074,VALID,63,VALID,0,
2009-09-13, 03:45:04,VALID,1010.15,VALID,0,VALID,98.5019,VALID,0.105969,VALID,24.7074,VALID,63,VALID,0,
2009-09-13, 03:46:04,VALID,1010.18,VALID,0,VALID,98.479,VALID,0.105969,VALID,24.7055,VALID,63,VALID,0,
2009-09-13, 03:47:04,VALID,1010.2,VALID,0,VALID,98.5019,VALID,0.105969,VALID,24.7269,VALID,63,VALID,0,
2009-09-13, 03:48:04,VALID,1010.18,VALID,0,VALID,98.4942,VALID,0,VALID,24.7074,VALID,63,VALID,0,
2009-09-13, 03:49:04,VALID,1010.19,VALID,0,VALID,98.4942,VALID,0,VALID,24.6879,VALID,63,VALID,0,
2009-09-13, 03:50:04,VALID,1010.22,VALID,0,VALID,98.4942,VALID,0.105969,VALID,24.7074,VALID,63,VALID,0,
2009-09-13, 03:51:04,VALID,1010.22,VALID,0,VALID,98.4942,VALID,0,VALID,24.7074,VALID,63,VALID,0,
2009-09-13, 03:52:04,VALID,1010.22,VALID,0,VALID,98.4714,VALID,0.105969,VALID,24.7055,VALID,63,VALID,0,